GW0458 Weather Reports


time (UTC)temp
C
wind
direction
speed
KPH
gust
KPH
rain 1hr
cm
rain 24hr
cm
rain mn
cm
humidity
%
barometer
mb
20260503011232 23 206 0.0 0.0 0.00 0.00 0.00 55 1020.0
20260503004231 24 231 1.6 3.2 0.00 0.00 0.00 53 1020.1
20260503001229 24 206 1.6 3.2 0.00 0.00 0.00 52 1019.8
20260502234224 23 269 3.2 3.2 0.00 0.00 0.00 55 1020.6
20260502231222 23 214 3.2 3.2 0.00 0.00 0.00 52 1020.9
20260502224222 23 214 3.2 8.0 0.00 0.00 0.00 55 1021.4
20260502221222 23 338 3.2 3.2 0.00 0.00 0.00 59 1021.7
20260502214221 23 213 4.8 4.8 0.00 0.00 0.00 58 1022.0
20260502211216 24 206 1.6 1.6 0.00 0.00 0.00 55 1022.7
20260502204211 23 208 1.6 1.6 0.00 0.00 0.00 58 1022.9
20260502201210 23 247 1.6 3.2 0.00 0.00 0.00 59 1023.1
20260502194208 23 202 1.6 3.2 0.00 0.00 0.00 59 1023.1
20260502191205 22 229 1.6 1.6 0.00 0.00 0.00 62 1023.9
20260502184203 20 231 3.2 4.8 0.00 0.00 0.00 69 1023.8
20260502181201 20 205 1.6 1.6 0.00 0.00 0.00 67 1024.0
20260502164200 14 209 0.0 0.0 0.00 0.00 0.00 86 1024.5
20260502161158 13 213 0.0 1.6 0.00 0.00 0.00 90 1024.9
20260502151149 12 215 0.0 0.0 0.00 0.00 0.00 96 1024.8
20260502121138 10 208 0.0 0.0 0.00 0.00 0.00 98 1024.8
20260502114137 11 202 1.6 1.6 0.00 0.00 0.00 96 1024.8
20260502111133 11 187 1.6 1.6 0.00 0.00 0.00 94 1025.4
20260502104129 10 200 0.0 0.0 0.00 0.00 0.00 94 1024.9
20260502101125 11 199 0.0 0.0 0.00 0.00 0.00 90 1024.5
20260502091118 12 207 0.0 0.0 0.00 0.00 0.00 79 1024.5
20260502071107 14 209 0.0 0.0 0.00 0.00 0.00 66 1024.3
20260502064105 15 174 0.0 0.0 0.00 0.00 0.00 61 1024.1
20260502061101 16 209 0.0 0.0 0.00 0.00 0.00 62 1023.9
20260502054100 16 215 0.0 0.0 0.00 0.00 0.00 64 1023.4
20260502051059 16 218 0.0 0.0 0.00 0.00 0.00 65 1023.1
20260502044056 16 220 0.0 1.6 0.00 0.00 0.00 71 1023.3
20260502041054 16 211 0.0 0.0 0.00 0.00 0.00 73 1023.2
20260502034049 17 208 0.0 1.6 0.00 0.00 0.00 68 1022.3
20260502031044 18 213 0.0 0.0 0.00 0.00 0.00 64 1022.2
20260502024043 19 216 3.2 4.8 0.00 0.00 0.00 57 1021.9
20260502021042 19 211 0.0 0.0 0.00 0.00 0.00 57 1021.8
20260502014042 21 236 1.6 1.6 0.00 0.00 0.00 51 1021.7